Regional Weather Roundup
Issued by NWS Sioux Falls, SD

Home | Current Version | Previous Version | Text Only | Print | Product List | Glossary On
Versions: 1 2 3 4 5 6 7 8 9 10 11 12 13 14 15 16 17 18 19 20 21 22 23 24 25 26 27 28 29 30 31 32 33 34 35 36 37 38 39 40 41 42 43 44 45 46 47 48 49 50
000
ASUS43 KFSD 241102
RWRFSD

WEATHER ROUNDUP FOR SE SOUTH DAKOTA/SW MINNESOTA/NW IOWA
NATIONAL WEATHER SERVICE SIOUX FALLS SD
600 AM CDT SUN MAY 24 2015

NOTE: "FAIR" INDICATES FEW OR NO CLOUDS BELOW 12,000 FEET WITH NO
SIGNIFICANT WEATHER AND OR OBSTRUCTIONS TO VISIBILITY.


SDZ038>040-050-052>070-241200-
SOUTHEAST SOUTH DAKOTA

CITY           SKY/WX    TMP DP  RH WIND       PRES   REMARKS
BROOKINGS      CLOUDY    57  55  94 E6        30.00F
CHAMBERLAIN    CLOUDY    55  55 100 E3        29.97R FOG
HURON          CLOUDY    54  53  97 NE3       29.98F FOG
MADISON        CLOUDY    55  55 100 E10       29.97F
MITCHELL       CLOUDY    58  56  93 NE6       29.96F FOG
SIOUX FALLS    DRIZZLE   59  57  93 E9        29.96F
WINNER         CLOUDY    56  54  93 E7        29.95F FOG
YANKTON        CLOUDY    59  55  88 E12       29.93S
$$

MNZ071-072-080-081-089-090-097-098-241200-
SOUTHWEST MINNESOTA

CITY           SKY/WX    TMP DP  RH WIND       PRES   REMARKS
FAIRMONT       CLOUDY    57  52  82 SE8       30.02F
JACKSON        LGT RAIN  59  55  88 E8        30.01F
LUVERNE        CLOUDY    61  57  88 E8        29.98F
MARSHALL       CLOUDY    57  52  82 SE5       30.01S
MONTEVIDEO     CLOUDY    57  52  82 SE3       30.03F
REDWOOD FALLS  LGT RAIN  59  50  72 E7        30.01F
TRACY          DRIZZLE   60  57  91 E6        30.01F
WINDOM         CLOUDY    57  54  88 E6        30.01F
WORTHINGTON    CLOUDY    57  54  88 E7        30.00F
$$

IAZ001>003-012>014-020>022-031-032-NEZ013-014-SDZ071-241200-
NORTHWEST IOWA

CITY           SKY/WX    TMP DP  RH WIND       PRES   REMARKS
DENISON        CLOUDY    59  59 100 E12G17    29.93S
ESTHERVILLE    CLOUDY    57  56  96 E12       30.00F
SIOUX CITY     CLOUDY    61  57  87 E10       29.93F
SPENCER        CLOUDY    59  57  93 E9        29.98F
$$

ABBREVIATIONS USED IN REMARKS
   TC - TEMPERATURE IN CELSIUS
  WCI - WIND CHILL INDEX
   HX - HEAT INDEX
  VSB - VISIBILITY




USA.gov is the U.S. government's official web portal to all federal, state and local government web resources and services.